TimeEST,TemperatureF,Dew PointF,Humidity,Sea Level PressureIn,VisibilityMPH,Wind Direction,Wind SpeedMPH,Gust SpeedMPH,PrecipitationIn,Events,Conditions,WindDirDegrees,DateUTC
12:15 AM,-9999,-9999,N/A,29.37,10.0,South,18.4,31.1,0.01,Rain,Light Rain,170,2013-01-31 05:15:00
12:35 AM,-9999,-9999,N/A,29.42,2.0,SW,27.6,39.1,0.31,Rain,Heavy Rain,220,2013-01-31 05:35:00
12:55 AM,-9999,-9999,N/A,29.45,7.0,SW,21.9,36.8,0.04,Rain,Rain,230,2013-01-31 05:55:00
1:15 AM,-9999,-9999,N/A,29.45,10.0,SW,21.9,33.4,0.05,,Drizzle,220,2013-01-31 06:15:00
1:35 AM,-9999,-9999,N/A,29.46,10.0,SW,21.9,33.4,0.10,Rain,Rain,220,2013-01-31 06:35:00
1:55 AM,-9999,-9999,N/A,29.44,10.0,SSW,15.0,27.6,0.01,Rain,Light Rain,210,2013-01-31 06:55:00
2:15 AM,-9999,-9999,N/A,29.45,10.0,SW,13.8,28.8,0.03,Rain,Rain,220,2013-01-31 07:15:00
2:35 AM,-9999,-9999,N/A,29.44,10.0,SSW,13.8,20.7,0.04,Rain,Light Rain,210,2013-01-31 07:35:00
2:55 AM,-9999,-9999,N/A,29.46,10.0,SW,17.3,27.6,N/A,,Overcast,220,2013-01-31 07:55:00
3:15 AM,-9999,-9999,N/A,29.45,10.0,SW,19.6,25.3,N/A,,Mostly Cloudy,220,2013-01-31 08:15:00
3:35 AM,-9999,-9999,N/A,29.47,10.0,SSW,17.3,27.6,N/A,,Mostly Cloudy,210,2013-01-31 08:35:00
3:55 AM,-9999,-9999,N/A,29.48,10.0,SW,19.6,31.1,N/A,,Mostly Cloudy,230,2013-01-31 08:55:00
4:15 AM,-9999,-9999,N/A,29.49,10.0,SW,17.3,25.3,N/A,,Overcast,220,2013-01-31 09:15:00
4:35 AM,-9999,-9999,N/A,29.51,10.0,SW,15.0,26.5,N/A,,Overcast,230,2013-01-31 09:35:00
4:55 AM,-9999,-9999,N/A,29.53,7.0,WSW,15.0,31.1,N/A,Rain,Rain,240,2013-01-31 09:55:00
5:15 AM,-9999,-9999,N/A,29.55,10.0,SW,12.7,27.6,N/A,,Overcast,230,2013-01-31 10:15:00
5:35 AM,-9999,-9999,N/A,29.57,10.0,West,10.4,24.2,N/A,,Overcast,270,2013-01-31 10:35:00
5:55 AM,-9999,-9999,N/A,29.59,10.0,West,12.7,25.3,N/A,,Overcast,260,2013-01-31 10:55:00
6:15 AM,-9999,-9999,N/A,29.62,10.0,West,11.5,27.6,N/A,,Overcast,270,2013-01-31 11:15:00
6:35 AM,-9999,-9999,N/A,29.64,10.0,West,11.5,23.0,N/A,,Overcast,270,2013-01-31 11:35:00
6:55 AM,-9999,-9999,N/A,29.66,10.0,West,18.4,27.6,N/A,,Mostly Cloudy,260,2013-01-31 11:55:00
7:15 AM,-9999,-9999,N/A,29.67,10.0,West,12.7,24.2,N/A,,Scattered Clouds,260,2013-01-31 12:15:00
7:35 AM,-9999,-9999,N/A,29.69,10.0,West,10.4,20.7,N/A,,Clear,270,2013-01-31 12:35:00
7:55 AM,-9999,-9999,N/A,29.72,10.0,West,11.5,23.0,N/A,,Clear,280,2013-01-31 12:55:00
8:15 AM,-9999,-9999,N/A,29.74,10.0,West,12.7,24.2,N/A,,Clear,280,2013-01-31 13:15:00
8:35 AM,-9999,-9999,N/A,29.76,10.0,West,15.0,26.5,N/A,,Clear,270,2013-01-31 13:35:00
8:55 AM,-9999,-9999,N/A,29.77,10.0,West,11.5,31.1,N/A,,Clear,280,2013-01-31 13:55:00
9:15 AM,-9999,-9999,N/A,29.78,10.0,West,12.7,25.3,N/A,,Clear,280,2013-01-31 14:15:00
9:35 AM,-9999,-9999,N/A,29.80,10.0,West,13.8,28.8,N/A,,Clear,260,2013-01-31 14:35:00
9:55 AM,-9999,-9999,N/A,29.81,10.0,West,10.4,26.5,N/A,,Clear,270,2013-01-31 14:55:00
10:15 AM,-9999,-9999,N/A,29.83,10.0,West,18.4,31.1,N/A,,Clear,280,2013-01-31 15:15:00
10:35 AM,-9999,-9999,N/A,29.83,10.0,West,11.5,23.0,N/A,,Clear,260,2013-01-31 15:35:00
10:55 AM,-9999,-9999,N/A,29.84,10.0,West,13.8,25.3,N/A,,Clear,280,2013-01-31 15:55:00
11:15 AM,-9999,-9999,N/A,29.85,10.0,West,13.8,26.5,N/A,,Clear,260,2013-01-31 16:15:00
11:35 AM,-9999,-9999,N/A,29.85,10.0,West,9.2,29.9,N/A,,Clear,280,2013-01-31 16:35:00
11:55 AM,-9999,-9999,N/A,29.86,10.0,West,9.2,26.5,N/A,,Clear,260,2013-01-31 16:55:00
12:15 PM,-9999,-9999,N/A,29.84,10.0,West,10.4,32.2,N/A,,Clear,280,2013-01-31 17:15:00
12:35 PM,-9999,-9999,N/A,29.84,10.0,WSW,13.8,26.5,N/A,,Clear,250,2013-01-31 17:35:00
12:55 PM,-9999,-9999,N/A,29.84,10.0,WSW,17.3,31.1,N/A,,Clear,250,2013-01-31 17:55:00
1:15 PM,-9999,-9999,N/A,29.83,10.0,West,15.0,24.2,N/A,,Clear,260,2013-01-31 18:15:00
1:35 PM,-9999,-9999,N/A,29.84,10.0,WSW,17.3,26.5,N/A,,Clear,250,2013-01-31 18:35:00
1:55 PM,-9999,-9999,N/A,29.84,10.0,WSW,18.4,25.3,N/A,,Scattered Clouds,240,2013-01-31 18:55:00
2:15 PM,-9999,-9999,N/A,29.85,10.0,WSW,17.3,25.3,N/A,,Scattered Clouds,250,2013-01-31 19:15:00
2:35 PM,-9999,-9999,N/A,29.86,10.0,WSW,13.8,21.9,N/A,,Mostly Cloudy,250,2013-01-31 19:35:00
2:55 PM,-9999,-9999,N/A,29.86,10.0,WSW,15.0,28.8,N/A,,Overcast,240,2013-01-31 19:55:00
3:15 PM,-9999,-9999,N/A,29.88,10.0,West,17.3,35.7,N/A,,Mostly Cloudy,260,2013-01-31 20:15:00
3:35 PM,-9999,-9999,N/A,29.89,10.0,WSW,17.3,29.9,N/A,,Scattered Clouds,250,2013-01-31 20:35:00
3:55 PM,-9999,-9999,N/A,29.90,10.0,West,13.8,25.3,N/A,,Mostly Cloudy,270,2013-01-31 20:55:00
4:15 PM,-9999,-9999,N/A,29.91,10.0,West,11.5,17.3,N/A,,Mostly Cloudy,260,2013-01-31 21:15:00
4:35 PM,-9999,-9999,N/A,29.92,10.0,West,10.4,19.6,N/A,,Overcast,280,2013-01-31 21:35:00
4:55 PM,-9999,-9999,N/A,29.93,10.0,West,13.8,20.7,N/A,,Mostly Cloudy,270,2013-01-31 21:55:00
5:15 PM,-9999,-9999,N/A,29.94,10.0,WNW,8.1,-,N/A,,Mostly Cloudy,290,2013-01-31 22:15:00
5:35 PM,-9999,-9999,N/A,29.95,10.0,West,8.1,18.4,N/A,,Scattered Clouds,280,2013-01-31 22:35:00
5:55 PM,-9999,-9999,N/A,29.96,10.0,West,8.1,-,N/A,,Scattered Clouds,260,2013-01-31 22:55:00
6:15 PM,-9999,-9999,N/A,29.97,10.0,West,6.9,-,N/A,,Scattered Clouds,280,2013-01-31 23:15:00
6:35 PM,-9999,-9999,N/A,29.98,10.0,West,6.9,-,N/A,,Clear,280,2013-01-31 23:35:00
6:55 PM,-9999,-9999,N/A,29.99,10.0,West,5.8,-,N/A,,Clear,260,2013-01-31 23:55:00
7:15 PM,-9999,-9999,N/A,29.99,10.0,West,5.8,-,N/A,,Clear,270,2013-02-01 00:15:00
7:35 PM,-9999,-9999,N/A,30.00,10.0,WSW,4.6,-,N/A,,Clear,250,2013-02-01 00:35:00
7:55 PM,-9999,-9999,N/A,30.00,10.0,WSW,3.5,-,N/A,,Clear,240,2013-02-01 00:55:00
8:15 PM,-9999,-9999,N/A,30.00,10.0,WSW,4.6,-,N/A,,Clear,240,2013-02-01 01:15:00
8:35 PM,-9999,-9999,N/A,30.01,10.0,WSW,6.9,-,N/A,,Clear,250,2013-02-01 01:35:00
8:55 PM,-9999,-9999,N/A,30.01,10.0,WSW,3.5,-,N/A,,Clear,240,2013-02-01 01:55:00
9:15 PM,-9999,-9999,N/A,30.02,10.0,Calm,Calm,-,N/A,,Clear,0,2013-02-01 02:15:00
9:35 PM,-9999,-9999,N/A,30.02,10.0,SW,3.5,-,N/A,,Clear,230,2013-02-01 02:35:00
9:55 PM,-9999,-9999,N/A,30.02,10.0,SW,4.6,-,N/A,,Clear,230,2013-02-01 02:55:00
10:15 PM,-9999,-9999,N/A,30.02,10.0,Calm,Calm,-,N/A,,Clear,0,2013-02-01 03:15:00
10:35 PM,-9999,-9999,N/A,30.02,10.0,SW,3.5,-,N/A,,Clear,220,2013-02-01 03:35:00
10:55 PM,-9999,-9999,N/A,30.02,10.0,Calm,Calm,-,N/A,,Clear,0,2013-02-01 03:55:00
11:15 PM,-9999,-9999,N/A,30.02,10.0,Calm,Calm,-,N/A,,Clear,0,2013-02-01 04:15:00
11:35 PM,-9999,-9999,N/A,30.02,10.0,Calm,Calm,-,N/A,,Clear,0,2013-02-01 04:35:00
11:55 PM,-9999,-9999,N/A,30.03,10.0,SSW,4.6,-,N/A,,Clear,200,2013-02-01 04:55:00